Time_in_sec,Latitude,Longitude,Altitude,Nbsat_max_qualitysignal,Nbsat_locked,valid_data
1323445914.19439960,47.37537384,8.55019760,495.67291260,0,5,1
1323446022.64566541,47.37508392,8.55006695,574.83538818,0,5,1
1323446022.69367051,47.37508392,8.55006695,574.86492920,0,5,1
1323446022.74448586,47.37509155,8.55006027,573.72180176,0,5,1
1323446022.79262114,47.37509155,8.55005932,573.74145508,0,5,1
1323446022.84168577,47.37509155,8.55005932,573.77667236,0,5,1
1323446022.89262247,47.37509155,8.55005932,573.81182861,0,5,1
1323446022.94452667,47.37509155,8.55005932,573.84686279,0,5,1
1323446022.99653816,47.37509918,8.55005360,572.30627441,0,5,1
1323446023.04168558,47.37509918,8.55005360,572.33892822,0,5,1
1323446023.09354115,47.37509918,8.55005360,572.37158203,0,5,1
1323446023.14463401,47.37509918,8.55005360,572.40423584,0,5,1
1323446023.19362497,47.37509918,8.55005360,572.43682861,0,5,1
1323446023.24155092,47.37511444,8.55005455,569.81408691,0,5,1
1323446023.29363632,47.37511444,8.55005455,569.78204346,0,5,1
1323446023.34463573,47.37511444,8.55005455,569.81042480,0,5,1
1323446023.39353561,47.37511444,8.55005455,569.83880615,0,5,1
1323446023.44153738,47.37511444,8.55005455,569.86712646,0,5,1
1323446023.49440289,47.37514496,8.55006599,564.87060547,0,5,1
1323446023.54150963,47.37514496,8.55006599,564.82482910,0,5,1
1323446023.59327793,47.37514496,8.55006599,564.84545898,0,5,1
1323446023.64217734,47.37514496,8.55006599,564.86608887,0,5,1
1323446023.69253063,47.37514496,8.55006599,564.88659668,0,5,1
1323446023.74156213,47.37518311,8.55008125,558.69183350,0,5,1
1323446023.79248047,47.37518311,8.55008125,558.65814209,0,5,1
1323446023.84556651,47.37518311,8.55008125,558.66931152,0,5,1
1323446023.89424706,47.37518311,8.55008125,558.68048096,0,5,1
1323446023.94448233,47.37518311,8.55008125,558.69158936,0,5,1
1323446023.99248171,47.37521362,8.55009556,553.50018311,0,5,1
1323446024.04227209,47.37521362,8.55009651,553.48382568,0,5,1
1323446024.09349442,47.37521362,8.55009651,553.48718262,0,5,1
1323446024.14953065,47.37521362,8.55009651,553.49041748,0,5,1
1323446024.19252539,47.37521362,8.55009651,553.49365234,0,5,1
1323446024.24449396,47.37523651,8.55010891,549.12542725,0,5,1
1323446024.29381442,47.37523651,8.55010796,549.11206055,0,5,1
1323446024.34152627,47.37523651,8.55010796,549.10858154,0,5,1
1323446024.39363337,47.37523651,8.55010796,549.10510254,0,5,1
1323446024.44453263,47.37523651,8.55010796,549.10150146,0,5,1
1323446024.49355626,47.37525558,8.55011749,545.48846436,0,5,1
1323446024.54451394,47.37525558,8.55011749,545.47601318,0,5,1
1323446024.60054946,47.37525558,8.55011749,545.46691895,0,5,1
1323446024.64152145,47.37525940,8.55011749,545.45587158,0,5,1
1323446024.69414592,47.37525940,8.55011749,545.44848633,0,5,1
1323446024.74449754,47.37527466,8.55012608,542.43792725,0,5,1
1323446024.79353881,47.37527466,8.55012512,542.42279053,0,5,1
1323446024.84902334,47.37527466,8.55012512,542.40881348,0,5,1
1323446024.89248705,47.37527466,8.55012512,542.39483643,0,5,1
1323446024.94153214,47.37527466,8.55012512,542.38079834,0,5,1
1323446024.99259853,47.37528610,8.55013180,539.80389404,0,7,1
1323446025.04548907,47.37528610,8.55013180,539.77795410,0,7,1
1323446025.09250593,47.37528610,8.55013180,539.75964355,0,7,1
1323446025.14448953,47.37528610,8.55013180,539.74133301,0,7,1
1323446025.19251418,47.37528610,8.55013180,539.72302246,0,7,1
1323446025.24156046,47.37529755,8.55013752,537.46569824,0,7,1
1323446025.29364562,47.37529755,8.55013752,537.42138672,0,7,1
1323446025.34096241,47.37529755,8.55013752,537.39910889,0,7,1
1323446025.39251947,47.37529755,8.55013752,537.37683105,0,7,1
1323446025.44449997,47.37529755,8.55013752,537.35443115,0,7,1
1323446025.49381614,47.37530899,8.55014229,535.36346436,0,7,1
1323446025.54449248,47.37530899,8.55014229,535.32781982,0,7,1
1323446025.59265184,47.37530899,8.55014229,535.30200195,0,7,1
1323446025.64168119,47.37530899,8.55014229,535.27612305,0,7,1
1323446025.69249821,47.37530899,8.55014229,535.25018311,0,7,1
1323446025.74452472,47.37531662,8.55014610,533.45794678,0,7,1
1323446025.80556893,47.37531662,8.55014706,533.42230225,0,7,1
1323446025.84454703,47.37531662,8.55014706,533.38745117,0,7,1
1323446025.89369321,47.37531662,8.55014706,533.36413574,0,7,1
1323446025.94453740,47.37531662,8.55014706,533.33496094,0,7,1
1323446025.99255848,47.37532425,8.55014992,531.70422363,0,7,1
1323446026.04158258,47.37532425,8.55014992,531.66772461,0,7,1
1323446026.09344292,47.37532425,8.55014992,531.63549805,0,7,1
1323446026.14714670,47.37532425,8.55014992,531.60333252,0,7,1
1323446026.19249916,47.37532425,8.55014992,531.57104492,0,7,1
1323446026.24550676,47.37533188,8.55015278,530.07897949,0,7,1
1323446026.29356337,47.37533188,8.55015278,530.03540039,0,7,1
1323446026.34153080,47.37533188,8.55015278,530.00030518,0,7,1
1323446026.39354897,47.37533188,8.55015278,529.96514893,0,7,1
1323446026.44428802,47.37533188,8.55015278,529.92993164,0,7,1
1323446026.49354529,47.37533188,8.55015278,529.89471436,0,7,1
1323446026.54451585,47.37533951,8.55015469,528.50256348,0,7,1
1323446026.59251881,47.37533951,8.55015469,528.46459961,0,7,1
1323446026.64452147,47.37533951,8.55015469,528.42663574,0,7,1
1323446026.69441581,47.37533951,8.55015469,528.38861084,0,7,1
1323446026.74163556,47.37534714,8.55015659,527.11315918,0,7,1
1323446026.79253769,47.37534714,8.55015564,527.04498291,0,7,1
1323446026.84229875,47.37534714,8.55015564,527.00408936,0,7,1
1323446026.89330292,47.37534714,8.55015564,526.96319580,0,7,1
1323446026.94154501,47.37534714,8.55015564,526.92230225,0,7,1
1323446026.99254894,47.37534714,8.55015564,526.88128662,0,7,1
1323446027.04449511,47.37535095,8.55015659,525.80035400,0,7,1
1323446027.09464335,47.37535095,8.55015659,525.75708008,0,7,1
1323446027.14449334,47.37535095,8.55015659,525.71380615,0,7,1
1323446027.19365215,47.37535095,8.55015659,525.67047119,0,7,1
1323446027.24461293,47.37535858,8.55015659,524.75268555,0,7,1
1323446027.29363370,47.37535858,8.55015659,524.69812012,0,7,1
1323446027.34556293,47.37535858,8.55015659,524.65277100,0,7,1
1323446027.39250517,47.37535858,8.55015659,524.60742188,0,7,1
1323446027.44565558,47.37535858,8.55015659,524.56201172,0,7,1
1323446027.49412107,47.37535858,8.55015659,524.51654053,0,7,1
1323446027.54152179,47.37536240,8.55015564,523.69244385,0,7,1
1323446027.59251881,47.37536240,8.55015564,523.64514160,0,7,1
1323446027.64201713,47.37536240,8.55015564,523.59783936,0,7,1
1323446027.69363308,47.37536240,8.55015564,523.55053711,0,7,1
1323446027.74150777,47.37537003,8.55015564,522.76367188,0,7,1
1323446027.79245949,47.37536621,8.55015564,522.71209717,0,7,1
1323446027.84549522,47.37536621,8.55015564,522.66308594,0,7,1
1323446027.89406753,47.37537003,8.55015564,522.61395264,0,7,1
1323446027.94462490,47.37537003,8.55015564,522.56481934,0,7,1
1323446027.99250746,47.37537003,8.55015564,522.51562500,0,7,1
1323446028.04151726,47.37537384,8.55015564,521.73248291,0,7,1
1323446028.09388685,47.37537384,8.55015469,521.68151855,0,7,1
1323446028.14151740,47.37537384,8.55015469,521.63049316,0,7,1
1323446028.20158339,47.37537384,8.55015469,521.57946777,0,7,1
1323446028.24148870,47.37537766,8.55015469,520.81829834,0,7,1
1323446028.29386568,47.37537766,8.55015469,520.77618408,0,7,1
1323446028.34155703,47.37537766,8.55015469,520.72338867,0,7,1
1323446028.39263582,47.37537766,8.55015469,520.67059326,0,7,1
1323446028.44157648,47.37537766,8.55015469,520.61773682,0,7,1
1323446028.49262261,47.37537766,8.55015469,520.56481934,0,7,1
1323446028.54151702,47.37538147,8.55015373,519.86041260,0,7,1
1323446028.59252095,47.37538147,8.55015373,519.80590820,0,7,1
1323446028.64150953,47.37538147,8.55015278,519.75134277,0,7,1
1323446028.69370961,47.37538147,8.55015278,519.69677734,0,7,1
1323446028.74448442,47.37538147,8.55015278,519.64208984,0,7,1
1323446028.79366326,47.37538528,8.55015278,519.00506592,0,7,1
1323446028.84160328,47.37538528,8.55015278,518.94885254,0,7,1
1323446028.89363122,47.37538528,8.55015278,518.89263916,0,7,1
1323446028.94452000,47.37538528,8.55015278,518.83636475,0,7,1
1323446028.99256849,47.37538528,8.55015278,518.78002930,0,8,1
1323446029.04157352,47.37538910,8.55015182,518.20989990,0,8,1
1323446029.09357095,47.37538910,8.55015182,518.15222168,0,8,1
1323446029.14159250,47.37538910,8.55015182,518.09454346,0,8,1
1323446029.19264340,47.37538910,8.55015087,518.03680420,0,8,1
1323446029.24405885,47.37539291,8.55015182,517.51629639,0,8,1
1323446029.29348755,47.37538910,8.55015278,517.47052002,0,8,1
1323446029.35328531,47.37539291,8.55015278,517.41162109,0,8,1
1323446029.40051341,47.37539291,8.55015182,517.35272217,0,8,1
1323446029.44150949,47.37539291,8.55015182,517.28192139,0,8,1
1323446029.49444509,47.37539291,8.55015182,517.23474121,0,8,1
1323446029.54151869,47.37539291,8.55015278,516.77056885,0,8,1
1323446029.59259176,47.37539291,8.55015278,516.71057129,0,8,1
1323446029.64233446,47.37539291,8.55015278,516.65051270,0,8,1
1323446029.69254446,47.37539673,8.55015278,516.59045410,0,8,1
1323446029.74155593,47.37539673,8.55015278,516.53033447,0,8,1
1323446029.79255009,47.37539673,8.55015278,516.09942627,0,8,1
1323446029.84154510,47.37539673,8.55015278,516.03833008,0,8,1
1323446029.89250231,47.37539673,8.55015278,515.97723389,0,8,1
1323446029.94451857,47.37539673,8.55015278,515.91601562,0,8,1
1323446029.99253559,47.37539673,8.55015278,515.85479736,0,8,1
1323446030.04459810,47.37540054,8.55015278,515.45190430,0,8,1
1323446030.09250355,47.37540054,8.55015278,515.38970947,0,8,1
1323446030.14952087,47.37540054,8.55015278,515.32751465,0,8,1
1323446030.19252205,47.37540054,8.55015278,515.26519775,0,8,1
1323446030.24583936,47.37540054,8.55015278,515.20288086,0,8,1
1323446030.29416752,47.37540436,8.55015278,514.83837891,0,8,1
1323446030.34549713,47.37540436,8.55015278,514.77520752,0,8,1
1323446030.39370441,47.37540436,8.55015278,514.71197510,0,8,1
1323446030.44216728,47.37540436,8.55015278,514.64874268,0,8,1
1323446030.49263239,47.37540436,8.55015278,514.58551025,0,8,1
1323446030.54550600,47.37540436,8.55015278,514.27661133,0,8,1
1323446030.60053730,47.37540436,8.55015278,514.21270752,0,8,1
1323446030.64151978,47.37540436,8.55015278,514.13592529,0,8,1
1323446030.69403148,47.37540436,8.55015278,514.08471680,0,8,1
1323446030.74551296,47.37540817,8.55015278,514.02062988,0,8,1
1323446030.79250574,47.37540817,8.55015278,513.67669678,0,8,1
1323446030.84203196,47.37540817,8.55015278,513.61187744,0,8,1
1323446030.89263391,47.37540817,8.55015278,513.54699707,0,8,1
1323446030.94548798,47.37540817,8.55015278,513.48205566,0,8,1
1323446030.99251366,47.37540817,8.55015278,513.41705322,2,9,1
1323446031.04151130,47.37540817,8.55015182,513.04449463,2,9,1
1323446031.09250355,47.37540817,8.55015182,512.97857666,2,9,1
1323446031.14563060,47.37541199,8.55015182,512.91259766,2,9,1
1323446031.19261479,47.37541199,8.55015182,512.84661865,2,9,1
1323446031.24468732,47.37541199,8.55015182,512.78063965,2,9,1
1323446031.29262829,47.37541199,8.55015182,512.38360596,2,9,1
1323446031.34549356,47.37541199,8.55015182,512.31665039,2,9,1
1323446031.39252281,47.37541199,8.55015087,512.24963379,2,9,1
1323446031.44449902,47.37541199,8.55015087,512.18255615,2,9,1
1323446031.49375224,47.37541199,8.55015087,512.11547852,2,9,1
1323446031.54549003,47.37541199,8.55015182,511.72592163,2,9,1
1323446031.59262276,47.37541199,8.55015182,511.65786743,2,9,1
1323446031.64174771,47.37541199,8.55015087,511.58981323,2,9,1
1323446031.69263363,47.37541199,8.55015087,511.52169800,2,9,1
1323446031.74449992,47.37541199,8.55015087,511.45358276,2,9,1
1323446031.79250741,47.37541580,8.55014992,511.06747437,2,9,1
1323446031.84074926,47.37541580,8.55014992,510.99835205,2,9,1
1323446031.89361715,47.37541580,8.55014992,510.92916870,2,9,1
1323446031.94064331,47.37541580,8.55014992,510.85998535,2,9,1
1323446031.99255896,47.37541580,8.55014992,510.79074097,2,9,1
1323446032.04468846,47.37541580,8.55014992,510.40011597,2,9,1
1323446032.09249115,47.37541580,8.55014992,510.32986450,2,9,1
1323446032.14462209,47.37541580,8.55014992,510.25955200,2,9,1
1323446032.20050550,47.37541580,8.55014992,510.18923950,2,9,1
1323446032.24454522,47.37541580,8.55014896,510.10482788,2,9,1
1323446032.29348421,47.37541580,8.55014992,509.73321533,2,9,1
1323446032.34153724,47.37541580,8.55014896,509.66192627,2,9,1
1323446032.39359617,47.37541580,8.55014896,509.59057617,2,9,1
1323446032.44452357,47.37541580,8.55014896,509.51922607,2,9,1
1323446032.49249697,47.37541580,8.55014896,509.44784546,2,9,1
1323446032.54135370,47.37541580,8.55014896,509.06130981,2,9,1
1323446032.59650350,47.37541580,8.55014896,508.98895264,2,9,1
1323446032.64449382,47.37541580,8.55014896,508.91653442,2,9,1
1323446032.69435763,47.37541962,8.55014896,508.84408569,2,9,1
1323446032.74551535,47.37541962,8.55014801,508.77160645,2,9,1
1323446032.79254317,47.37541962,8.55014896,508.39846802,2,9,1
1323446032.84154010,47.37541962,8.55014896,508.32501221,2,9,1
1323446032.89253926,47.37541962,8.55014896,508.25152588,2,9,1
1323446032.94160032,47.37541962,8.55014896,508.17800903,2,9,1
1323446032.99258709,47.37541962,8.55014896,508.10443115,2,9,1
1323446033.04563427,47.37541962,8.55014896,507.77334595,2,9,1
1323446033.09351850,47.37541962,8.55014896,507.69906616,2,9,1
1323446033.14554071,47.37541962,8.55014896,507.62475586,2,9,1
1323446033.19263577,47.37541962,8.55014801,507.55038452,2,9,1
1323446033.24155378,47.37541962,8.55014801,507.19769287,2,9,1
1323446033.29380965,47.37541962,8.55014896,507.16687012,2,9,1
1323446033.34549427,47.37541962,8.55014896,507.09185791,2,9,1
1323446033.39250612,47.37541962,8.55014896,507.01681519,2,9,1
1323446033.44552350,47.37541962,8.55014896,506.94177246,2,9,1
1323446033.49352455,47.37542343,8.55014801,506.60546875,2,9,1
1323446033.54461908,47.37542343,8.55014992,506.56976318,2,9,1
1323446033.59262180,47.37542343,8.55014992,506.49407959,2,9,1
1323446033.64205694,47.37542343,8.55014992,506.41836548,2,9,1
1323446033.69261193,47.37542343,8.55014992,506.34262085,2,9,1
1323446033.74151158,47.37542343,8.55014992,506.02667236,2,9,1
1323446033.79250979,47.37542343,8.55014992,505.97619629,2,9,1
1323446033.84458113,47.37542343,8.55014992,505.89971924,2,9,1
1323446033.89391875,47.37542343,8.55014992,505.82324219,2,9,1
1323446033.94549894,47.37542343,8.55014992,505.74673462,2,9,1
1323446033.99252963,47.37542343,8.55014896,505.43966675,2,9,1
1323446034.04192472,47.37542343,8.55015087,505.40045166,2,9,1
1323446034.09254146,47.37542343,8.55015087,505.32339478,2,9,1
1323446034.14150238,47.37542343,8.55015087,505.24630737,2,9,1
1323446034.20050526,47.37542343,8.55015087,505.16918945,2,9,1
1323446034.24149752,47.37542343,8.55015087,504.88925171,2,9,1
1323446034.29378033,47.37542343,8.55015087,504.82705688,2,9,1
1323446034.34176946,47.37542343,8.55015087,504.74929810,2,9,1
1323446034.39252806,47.37542343,8.55015087,504.67150879,2,9,1
1323446034.44177747,47.37542343,8.55015087,504.59368896,2,9,1
1323446034.49351335,47.37542343,8.55015087,504.51583862,2,9,1
1323446034.54150891,47.37542725,8.55014992,504.25674438,2,9,1
1323446034.59260297,47.37542725,8.55014992,504.17825317,2,9,1
1323446034.64075518,47.37542725,8.55014992,504.09973145,2,9,1
1323446034.69352603,47.37542725,8.55014992,504.02117920,2,9,1
1323446034.74450779,47.37542725,8.55014992,503.94259644,2,9,1
1323446034.79365134,47.37542725,8.55014896,503.68798828,2,9,1
1323446034.84450388,47.37542725,8.55014896,503.60879517,2,9,1
1323446034.89352179,47.37542725,8.55014896,503.52957153,2,9,1
1323446034.95368075,47.37542725,8.55014896,503.45034790,2,9,1
1323446034.99255633,47.37542725,8.55014896,503.35519409,1,9,1
1323446035.05264354,47.37542725,8.55014801,503.14434814,1,9,1
1323446035.09256315,47.37542725,8.55014801,503.04876709,1,9,1
1323446035.14060235,47.37542725,8.55014801,502.98501587,1,9,1
1323446035.19283390,47.37542725,8.55014801,502.90530396,1,9,1
1323446035.24151206,47.37542725,8.55014801,502.66076660,1,9,1
1323446035.29297185,47.37542725,8.55014801,502.61474609,1,9,1
1323446035.34151292,47.37542725,8.55014801,502.53463745,1,9,1
1323446035.40049958,47.37542725,8.55014801,502.45446777,1,9,1
1323446035.45356822,47.37542725,8.55014706,502.35824585,1,9,1
1323446035.49437165,47.37543106,8.55014706,502.12567139,1,9,1
1323446035.54151535,47.37543106,8.55014610,502.09652710,1,9,1
1323446035.59250259,47.37543106,8.55014610,502.01599121,1,9,1
1323446035.64236188,47.37543106,8.55014610,501.93539429,1,9,1
1323446035.69252968,47.37543106,8.55014610,501.85476685,1,9,1
1323446035.74148607,47.37543106,8.55014610,501.63339233,1,9,1
1323446035.79359055,47.37543106,8.55014896,501.58709717,1,9,1
1323446035.84146810,47.37543106,8.55014896,501.50619507,1,9,1
1323446035.89366460,47.37543106,8.55014896,501.42526245,1,9,1
1323446035.94156265,47.37543106,8.55014896,501.34426880,1,9,1
1323446036.00054669,47.37543106,8.55014801,501.13677979,1,9,1
1323446036.04394269,47.37542725,8.55014992,501.08453369,1,9,1
1323446036.09262919,47.37542725,8.55014992,501.01962280,1,9,1
1323446036.15422845,47.37542725,8.55014992,500.93841553,1,9,1
1323446036.19356751,47.37542725,8.55014992,500.84097290,1,9,1
1323446036.24156475,47.37543106,8.55014992,500.66580200,1,9,1
1323446036.29362369,47.37542725,8.55014896,500.63970947,1,9,1
1323446036.34549594,47.37542725,8.55014896,500.55844116,1,9,1
1323446036.39352155,47.37542725,8.55014896,500.47717285,1,9,1
1323446036.44208717,47.37542725,8.55014896,500.39584351,1,9,1
1323446036.49253631,47.37542725,8.55014896,500.21704102,1,9,1
1323446036.54548216,47.37542725,8.55014992,500.19436646,1,9,1
1323446036.60051537,47.37542725,8.55014992,500.11309814,1,9,1
1323446036.65364146,47.37542725,8.55014992,500.01553345,1,9,1
1323446036.69374466,47.37542725,8.55014992,499.93423462,1,9,1
1323446036.74194241,47.37542725,8.55014992,499.78509521,1,9,1
1323446036.80164695,47.37542343,8.55015087,499.75781250,1,9,1
1323446036.84460688,47.37542343,8.55015087,499.66030884,1,9,1
1323446036.89264774,47.37542343,8.55015182,499.59527588,1,9,1
1323446036.95394826,47.37542343,8.55015182,499.51394653,0,9,1
1323446037.00160027,47.37542343,8.55015182,499.40539551,0,9,1
1323446037.04099679,47.37542343,8.55015182,499.32424927,0,9,1
1323446037.09253764,47.37542343,8.55015278,499.25930786,0,9,1
1323446037.14556861,47.37542343,8.55015278,499.17810059,0,9,1
1323446037.20164728,47.37542343,8.55015278,499.09686279,0,9,1
1323446037.24180865,47.37542725,8.55015182,498.96173096,0,9,1
1323446037.30155849,47.37542725,8.55015182,498.89666748,0,9,1
1323446037.35381794,47.37542725,8.55015182,498.79901123,0,9,1
1323446037.39267302,47.37542725,8.55015278,498.71762085,0,9,1
1323446037.45263505,47.37542725,8.55015278,498.65246582,0,9,1
1323446037.49368143,47.37542725,8.55015373,498.54833984,0,9,1
1323446037.54447961,47.37542725,8.55015373,498.48333740,0,9,1
1323446037.60569954,47.37542725,8.55015373,498.40203857,0,9,1
1323446037.64453387,47.37542725,8.55015373,498.30444336,0,9,1
1323446037.70470381,47.37542725,8.55015373,498.23931885,0,9,1
1323446037.75367570,47.37542725,8.55015469,498.14511108,0,9,1
1323446037.80450916,47.37542725,8.55015469,498.06390381,0,9,1
1323446037.85263467,47.37542725,8.55015469,497.98263550,0,9,1
1323446037.90152168,47.37542725,8.55015564,497.90136719,0,9,1
1323446037.95362139,47.37542725,8.55015564,497.82003784,0,9,1
1323446038.00064039,47.37542725,8.55015564,497.72418213,0,9,1
1323446038.04152083,47.37542725,8.55015564,497.64291382,0,9,1
1323446038.10061550,47.37542725,8.55015564,497.57788086,0,9,1
1323446038.15352917,47.37542725,8.55015564,497.48025513,0,9,1
1323446038.20052242,47.37542725,8.55015564,497.39886475,0,9,1
1323446038.25263977,47.37542725,8.55015564,497.28985596,0,9,1
1323446038.29383087,47.37542725,8.55015564,497.20840454,0,9,1
1323446038.35364127,47.37542725,8.55015564,497.14321899,0,9,1
1323446038.40073681,47.37542725,8.55015564,497.04541016,0,9,1
1323446038.44245601,47.37542725,8.55015564,496.96383667,0,9,1
1323446038.50062799,47.37542725,8.55015659,496.84219360,0,9,1
1323446038.55439401,47.37542725,8.55015564,496.77914429,0,9,1
1323446038.60048270,47.37542725,8.55015564,496.69754028,0,9,1
1323446038.65253949,47.37542725,8.55015659,496.61590576,0,9,1
1323446038.70224714,47.37542725,8.55015659,496.53427124,0,9,1
1323446038.75250316,47.37542725,8.55015564,496.41207886,0,9,1
1323446038.80061722,47.37542725,8.55015564,496.33026123,0,9,1
1323446038.85249710,47.37542725,8.55015564,496.24844360,0,9,1
1323446038.90151167,47.37542725,8.55015659,496.16659546,0,9,1
1323446038.95249701,47.37542725,8.55015659,496.08468628,0,8,1
1323446039.00050974,47.37542725,8.55015564,495.94772339,0,8,1
1323446039.05348873,47.37542725,8.55015564,495.86563110,0,8,1
1323446039.10223460,47.37542725,8.55015564,495.78350830,0,8,1
1323446039.15250015,47.37542725,8.55015564,495.70135498,0,8,1
1323446039.20049405,47.37542725,8.55015564,495.61914062,0,8,1
1323446039.25251269,47.37542725,8.55015564,495.46908569,0,8,1
1323446039.30049682,47.37542725,8.55015564,495.38665771,0,8,1
1323446039.35411382,47.37542725,8.55015564,495.30416870,0,8,1
1323446039.40152097,47.37542725,8.55015564,495.22164917,0,8,1
1323446039.45350456,47.37542725,8.55015564,495.13909912,0,8,1
1323446039.50412631,47.37542725,8.55015659,494.98742676,0,8,1
1323446039.54998589,47.37542725,8.55015659,494.90466309,0,8,1
1323446039.60164690,47.37542725,8.55015659,494.82183838,0,8,1
1323446039.65256357,47.37542725,8.55015659,494.73901367,0,8,1
1323446039.70164299,47.37542725,8.55015659,494.65612793,0,8,1
1323446039.75397563,47.37542725,8.55015755,494.50579834,0,8,1
1323446039.80152607,47.37542725,8.55015755,494.42269897,0,8,1
1323446039.85251284,47.37542725,8.55015755,494.33953857,0,8,1
1323446039.90182066,47.37542725,8.55015755,494.25631714,0,8,1
1323446039.95253110,47.37542725,8.55015755,494.17306519,0,8,1
1323446040.00060201,47.37543106,8.55015945,494.03381348,0,8,1
1323446040.05126381,47.37543106,8.55015945,493.95043945,0,8,1
1323446040.10084057,47.37543106,8.55015945,493.86706543,0,8,1
1323446040.15384746,47.37543106,8.55015945,493.78363037,0,8,1
1323446040.20156431,47.37543106,8.55015945,493.70016479,0,8,1
1323446040.25252557,47.37543106,8.55016136,493.56680298,0,8,1
1323446040.30451775,47.37543106,8.55016136,493.48324585,0,8,1
1323446040.35353041,47.37543106,8.55016136,493.39965820,0,8,1
1323446040.40464258,47.37543106,8.55016136,493.31600952,0,8,1
1323446040.45289660,47.37543106,8.55016136,493.23236084,0,8,1
